Luray Caverns AP, Luray, VA, VA

10:56 AM EDT on June 29, 2017 (GMT -0400)
Luray Caverns AP, Luray, VA

Weather History for KLUA - December, 2013

Change the Weather History Date:

Thursday, December 26, 2013

  Actual Average (KSHD) Record (KSHD)
Temperature  
Mean Temperature 36 °F -  
Max Temperature 50 °F 44 °F 61 °F (2015)
Min Temperature 23 °F 24 °F 6 °F (2000)
Degree Days  
Heating Degree Days 28    
Moisture  
Dew Point 22 °F    
Average Humidity 57    
Maximum Humidity 93    
Minimum Humidity 37    
Precipitation  
Precipitation 0.00 in - - ()
Sea Level Pressure  
Sea Level Pressure 30.25 in    
Wind  
Wind Speed 5 mph (SW)    
Max Wind Speed 16 mph    
Max Gust Speed 23 mph    
Visibility 10 miles    
Events      
Averages and records for this station are not official NWS values.
T = Trace of Precipitation, MM = Missing Value Source: NWS Daily Summary

Daily Weather History Graph

Daily Weather History Graph

Search for Another Location

Airport or City:

Trip Planner

Search our weather history database for the weather conditions in past years. The results will help you decide how hot, cold, wet, or windy it might be!

Date:

Astronomy

Dec. 26, 2013 Rise Set
Actual Time 7:30 AM EST 4:59 PM EST
Civil Twilight 7:00 AM EST 5:28 PM EST
Nautical Twilight 6:27 AM EST 6:02 PM EST
Astronomical Twilight 5:54 AM EST 6:34 PM EST
Moon 1:00 AM EST (12/26) 12:30 PM EST (12/26)
Length of Visible Light 10h 28m
Length of Day
9h 28m
Last Quarter, 38% of the Moon is Illuminated
Dec 26
Last Quarter
Jan 1
New
Jan 7
First Quarter
Jan 15
Full
Jan 24
Last Quarter

Hourly Weather History & Observations

Time (EST) Temp. Windchill Dew Point Humidity Pressure Visibility Wind Dir Wind Speed Gust Speed Precip Events Conditions
12:15 AM 26.6 °F 21.2 °F 19.4 °F 74% 30.29 in 10.0 mi South 4.6 mph - N/A   Clear
12:35 AM 26.6 °F 22.6 °F 21.2 °F 80% 30.29 in 10.0 mi South 3.5 mph - N/A   Clear
12:55 AM 26.6 °F - 19.4 °F 74% 30.28 in 10.0 mi Calm Calm - N/A   Clear
1:15 AM 24.8 °F 20.5 °F 19.4 °F 80% 30.27 in 10.0 mi South 3.5 mph - N/A   Clear
1:35 AM 24.8 °F - 21.2 °F 86% 30.27 in 10.0 mi Calm Calm - N/A   Clear
1:55 AM 24.8 °F - 19.4 °F 80% 30.26 in 10.0 mi Calm Calm - N/A   Clear
2:15 AM 23.0 °F - 21.2 °F 93% 30.26 in 10.0 mi Calm Calm - N/A   Clear
2:35 AM 23.0 °F - 21.2 °F 93% 30.26 in 10.0 mi Calm Calm - N/A   Clear
2:55 AM 23.0 °F - 21.2 °F 93% 30.25 in 10.0 mi Calm Calm - N/A   Clear
3:15 AM 26.6 °F - 23.0 °F 86% 30.26 in 10.0 mi Calm Calm - N/A   Clear
3:35 AM 26.6 °F 20.0 °F 23.0 °F 86% 30.24 in 10.0 mi South 5.8 mph - N/A   Clear
3:55 AM 30.2 °F 24.3 °F 21.2 °F 69% 30.24 in 10.0 mi SSW 5.8 mph - N/A   Clear
4:15 AM 30.2 °F 24.3 °F 21.2 °F 69% 30.23 in 10.0 mi South 5.8 mph - N/A   Clear
4:35 AM 28.4 °F 24.6 °F 21.2 °F 74% 30.23 in 10.0 mi SW 3.5 mph - N/A   Clear
4:55 AM 32.0 °F 26.4 °F 21.2 °F 64% 30.22 in 10.0 mi SSW 5.8 mph - N/A   Clear
5:15 AM 32.0 °F 27.5 °F 19.4 °F 60% 30.21 in 10.0 mi SSW 4.6 mph - N/A   Clear
5:35 AM 32.0 °F 24.2 °F 19.4 °F 60% 30.21 in 10.0 mi SW 9.2 mph - N/A   Mostly Cloudy
5:55 AM 32.0 °F 24.8 °F 19.4 °F 60% 30.21 in 10.0 mi SW 8.1 mph - N/A   Overcast
6:15 AM 32.0 °F 24.2 °F 21.2 °F 64% 30.21 in 10.0 mi SSW 9.2 mph - N/A   Overcast
6:35 AM 32.0 °F 24.8 °F 19.4 °F 60% 30.21 in 10.0 mi SW 8.1 mph - N/A   Overcast
6:55 AM 32.0 °F 24.2 °F 19.4 °F 60% 30.22 in 10.0 mi WSW 9.2 mph - N/A   Overcast
7:15 AM 33.8 °F 25.8 °F 19.4 °F 56% 30.21 in 10.0 mi SSW 10.4 mph - N/A   Overcast
7:35 AM 33.8 °F 25.8 °F 19.4 °F 56% 30.22 in 10.0 mi SW 10.4 mph - N/A   Overcast
7:55 AM 33.8 °F 28.6 °F 19.4 °F 56% 30.21 in 10.0 mi WSW 5.8 mph - N/A   Overcast
8:15 AM 33.8 °F 28.6 °F 19.4 °F 56% 30.21 in 10.0 mi SW 5.8 mph - N/A   Overcast
8:35 AM 33.8 °F 29.6 °F 19.4 °F 56% 30.21 in 10.0 mi SSW 4.6 mph - N/A   Mostly Cloudy
8:55 AM 35.6 °F 30.7 °F 21.2 °F 56% 30.21 in 10.0 mi SW 5.8 mph - N/A   Scattered Clouds
9:15 AM 37.4 °F 34.9 °F 21.2 °F 52% 30.22 in 10.0 mi SW 3.5 mph - N/A   Clear
9:35 AM 39.2 °F 33.6 °F 21.2 °F 49% 30.22 in 10.0 mi SW 8.1 mph - N/A   Clear
9:55 AM 41.0 °F 35.8 °F 23.0 °F 49% 30.22 in 10.0 mi SSW 8.1 mph - N/A   Clear
10:15 AM 42.8 °F 37.5 °F 24.8 °F 49% 30.22 in 10.0 mi SSW 9.2 mph - N/A   Clear
10:35 AM 44.6 °F 40.2 °F 26.6 °F 49% 30.22 in 10.0 mi SSW 8.1 mph - N/A   Clear
10:55 AM 44.6 °F 39.7 °F 26.6 °F 49% 30.22 in 10.0 mi SSW 9.2 mph - N/A   Clear
11:15 AM 46.4 °F 42.9 °F 28.4 °F 50% 30.22 in 10.0 mi SSW 6.9 mph - N/A   Clear
11:35 AM 46.4 °F 42.4 °F 28.4 °F 50% 30.21 in 10.0 mi SSW 8.1 mph - N/A   Clear
11:55 AM 48.2 °F - 28.4 °F 46% 30.21 in 10.0 mi West 12.7 mph 18.4 mph N/A   Clear
12:15 PM 48.2 °F - 28.4 °F 46% 30.20 in 10.0 mi WSW 6.9 mph - N/A   Clear
12:35 PM 50.0 °F - 28.4 °F 43% 30.20 in 10.0 mi NW 6.9 mph - N/A   Mostly Cloudy
12:55 PM 48.2 °F - 28.4 °F 46% 30.21 in 10.0 mi WNW 10.4 mph 16.1 mph N/A   Mostly Cloudy
1:15 PM 50.0 °F - 28.4 °F 43% 30.21 in 10.0 mi NW 9.2 mph 17.3 mph N/A   Mostly Cloudy
1:35 PM 50.0 °F - 28.4 °F 43% 30.20 in 10.0 mi West 10.4 mph 17.3 mph N/A   Scattered Clouds
1:55 PM 50.0 °F - 26.6 °F 40% 30.21 in 10.0 mi West 10.4 mph - N/A   Clear
2:15 PM 50.0 °F - 26.6 °F 40% 30.21 in 10.0 mi West 16.1 mph 23.0 mph N/A   Clear
2:35 PM 48.2 °F - 26.6 °F 43% 30.22 in 10.0 mi WNW 10.4 mph 17.3 mph N/A   Clear
2:55 PM 46.4 °F 42.4 °F 24.8 °F 43% 30.23 in 10.0 mi NW 8.1 mph - N/A   Clear
3:15 PM 46.4 °F 42.9 °F 24.8 °F 43% 30.23 in 10.0 mi NW 6.9 mph - N/A   Clear
3:35 PM 46.4 °F 42.4 °F 23.0 °F 40% 30.24 in 10.0 mi WSW 8.1 mph - N/A   Clear
3:55 PM 46.4 °F 45.2 °F 21.2 °F 37% 30.24 in 10.0 mi WSW 3.5 mph 16.1 mph N/A   Clear
4:15 PM 46.4 °F 45.2 °F 21.2 °F 37% 30.24 in 10.0 mi West 3.5 mph - N/A   Clear
4:35 PM 44.6 °F 40.7 °F 21.2 °F 39% 30.24 in 10.0 mi WNW 6.9 mph - N/A   Clear
4:55 PM 44.6 °F 40.7 °F 19.4 °F 37% 30.25 in 10.0 mi West 6.9 mph - N/A   Clear
5:15 PM 42.8 °F - 19.4 °F 39% 30.25 in 10.0 mi Calm Calm - N/A   Clear
5:35 PM 42.8 °F - 19.4 °F 39% 30.25 in 10.0 mi Calm Calm - N/A   Clear
5:55 PM 42.8 °F 39.3 °F 19.4 °F 39% 30.26 in 10.0 mi SW 5.8 mph - N/A   Clear
6:15 PM 41.0 °F 38.0 °F 19.4 °F 42% 30.26 in 10.0 mi SSW 4.6 mph - N/A   Clear
6:35 PM 41.0 °F 37.1 °F 19.4 °F 42% 30.27 in 10.0 mi SW 5.8 mph - N/A   Clear
6:55 PM 41.0 °F 37.1 °F 19.4 °F 42% 30.27 in 10.0 mi SSW 5.8 mph - N/A   Clear
7:15 PM 41.0 °F 37.1 °F 19.4 °F 42% 30.29 in 10.0 mi West 5.8 mph - N/A   Clear
7:35 PM 41.0 °F 38.0 °F 19.4 °F 42% 30.29 in 10.0 mi South 4.6 mph - N/A   Clear
7:55 PM 37.4 °F 34.9 °F 19.4 °F 48% 30.30 in 10.0 mi South 3.5 mph - N/A   Clear
8:15 PM 37.4 °F 33.8 °F 19.4 °F 48% 30.30 in 10.0 mi South 4.6 mph - N/A   Clear
8:35 PM 35.6 °F 31.7 °F 21.2 °F 56% 30.30 in 10.0 mi South 4.6 mph - N/A   Clear
8:55 PM 33.8 °F 29.6 °F 23.0 °F 65% 30.31 in 10.0 mi South 4.6 mph - N/A   Clear
9:15 PM 33.8 °F 28.6 °F 23.0 °F 65% 30.31 in 10.0 mi SSW 5.8 mph - N/A   Clear
9:35 PM 33.8 °F 27.0 °F 23.0 °F 65% 30.31 in 10.0 mi SSW 8.1 mph - N/A   Clear
9:55 PM 33.8 °F 27.7 °F 23.0 °F 65% 30.32 in 10.0 mi SW 6.9 mph - N/A   Clear
10:15 PM 35.6 °F 28.6 °F 21.2 °F 56% 30.33 in 10.0 mi SW 9.2 mph - N/A   Clear
10:35 PM 35.6 °F - 23.0 °F 60% 30.34 in 10.0 mi Calm Calm - N/A   Clear
10:55 PM 32.0 °F 28.7 °F 23.0 °F 69% 30.34 in 10.0 mi SSE 3.5 mph - N/A   Clear
11:15 PM 32.0 °F 28.7 °F 23.0 °F 69% 30.35 in 10.0 mi South 3.5 mph - N/A   Clear
11:35 PM 32.0 °F 27.5 °F 23.0 °F 69% 30.35 in 10.0 mi South 4.6 mph - N/A   Clear
11:55 PM 32.0 °F 27.5 °F 23.0 °F 69% 30.35 in 10.0 mi SSW 4.6 mph - N/A   Clear